Lid_Strength_Index
3 3 3 3 3 3 3 3 2 2 2 2 2 3 3 3 3 4 8 5 4 -1 -1 1 1 2 2 4 4 4 9 10 9 10 9 6 8 5 4 6 5 4 5 3 2
4 4 3 3 3 3 3 3 3 3 3 3 3 2 2 2 4 7 2 -2 -2 -1 1 3 4 3 5 5 5 7 9 9 6 6 8 7 7 6 7 7 6 6 3 2 2
4 4 4 4 4 3 3 3 3 3 3 3 3 3 2 2 7 8 -2 -2 -1 -1 1 1 2 4 6 5 6 7 8 6 6 5 6 7 7 5 7 8 6 7 5 3 3
5 4 4 4 4 4 4 3 3 3 3 3 3 3 2 3 10 4 -1 -2 -1 -0 1 2 3 5 8 9 6 8 6 5 5 5 6 7 6 7 6 6 4 4 4 3 4
5 5 5 5 5 4 4 4 4 3 3 3 3 3 4 8 8 0 -2 -1 -0 1 2 4 4 8 9 8 7 6 6 6 4 6 6 6 7 7 6 5 3 3 4 4 4
4 4 4 5 4 4 4 4 4 4 4 3 3 4 7 11 5 4 2 0 1 1 3 5 6 7 8 8 8 7 6 6 5 6 6 7 7 6 6 4 5 4 4 4 4
5 4 4 4 4 4 4 4 4 4 3 3 3 4 7 8 5 5 3 1 1 1 5 4 5 7 7 8 6 7 8 7 7 7 7 6 9 8 5 5 5 5 5 4 3
5 4 4 4 4 4 5 5 4 3 2 3 3 4 10 5 4 5 5 5 0 2 4 3 4 6 7 7 8 9 7 10 8 7 7 7 11 7 5 6 6 6 5 5 4
4 4 4 4 5 5 5 5 4 2 2 3 4 5 9 3 6 5 5 6 3 4 5 3 5 7 7 9 9 9 10 10 9 7 8 8 10 7 5 6 6 6 5 5 4
4 4 4 5 5 5 5 5 3 2 3 3 3 8 7 7 5 5 5 5 6 6 7 6 7 9 9 10 11 10 9 9 10 8 8 9 9 8 6 6 6 6 5 5 5
3 3 3 4 5 5 6 7 10 9 10 9 8 8 7 5 4 5 6 6 5 6 7 7 8 11 10 9 8 8 8 9 8 7 8 9 9 8 7 6 7 6 6 5 5
2 2 3 3 4 6 8 10 11 11 14 9 10 9 7 6 8 6 5 7 7 9 6 8 9 9 9 9 9 9 9 9 8 7 8 9 9 8 7 7 6 6 6 5 5
2 2 2 3 4 7 9 10 9 9 13 10 9 9 9 8 8 7 6 7 8 9 7 8 8 8 9 10 10 9 9 10 8 8 7 8 9 10 8 7 6 5 5 4 5
2 2 2 3 6 7 9 9 8 9 13 12 10 9 8 8 9 5 5 6 8 9 7 7 6 8 10 10 9 9 9 8 8 9 12 8 13 10 9 9 7 6 6 5 4
2 2 2 3 6 6 6 6 7 10 18 10 10 7 7 9 8 8 5 6 8 8 7 9 7 8 10 10 9 9 8 8 8 9 10 11 12 9 8 10 8 7 6 5 4
2 2 2 5 5 4 4 5 8 13 18 11 10 11 10 9 8 7 7 5 6 7 7 7 5 6 8 8 9 8 9 9 9 9 12 9 10 10 9 8 7 6 6 5 4
2 2 4 4 6 4 4 6 12 16 10 12 12 11 12 11 10 8 9 9 9 11 10 8 7 6 6 9 8 9 9 12 13 13 13 10 10 9 6 6 6 6 6 5 4
2 3 6 5 4 4 5 8 15 12 12 10 11 12 12 11 10 9 9 10 8 8 10 11 12 8 6 7 10 10 9 11 15 14 12 10 11 9 6 5 5 4 4 4 5
3 6 7 5 5 4 7 14 13 11 10 11 11 12 12 12 12 11 10 10 8 8 10 11 11 7 7 6 7 10 11 8 10 11 11 10 9 7 6 6 6 5 5 5 4
6 9 8 6 5 5 9 12 12 8 7 9 12 12 14 13 13 13 10 8 9 7 6 8 11 8 7 6 7 9 8 12 11 14 14 12 11 10 8 7 6 5 5 4 4
8 9 7 5 5 7 12 11 10 7 6 9 11 12 12 14 14 14 12 9 7 8 7 7 8 9 7 8 8 10 11 10 9 10 13 13 11 7 7 6 6 5 4 4 4
8 12 6 5 9 9 10 9 8 7 6 7 8 10 12 12 13 14 14 10 9 7 9 7 8 10 9 6 6 8 9 9 11 12 10 10 10 7 6 5 6 5 4 4 4
10 11 5 5 12 11 8 8 7 8 8 8 8 9 10 12 14 13 13 10 10 9 8 7 9 11 10 8 8 8 9 9 8 8 10 11 11 6 6 6 5 5 4 4 4
9 12 8 7 7 8 9 9 10 6 7 7 7 7 10 12 12 13 13 11 10 9 6 7 9 9 12 10 8 9 8 9 9 10 10 10 9 8 6 6 5 5 5 4 4
9 11 9 11 8 8 8 8 11 11 7 7 8 8 11 13 13 14 13 12 10 9 9 8 10 8 8 8 8 8 9 9 10 9 10 9 9 7 6 6 6 6 5 4 4
10 9 7 8 7 8 8 10 11 10 10 10 9 8 9 11 12 14 13 13 12 11 10 9 9 8 9 8 8 9 8 8 8 8 9 9 9 6 5 6 6 5 5 4 4
7 5 7 8 8 9 9 9 9 8 7 7 8 9 9 9 11 11 12 11 11 13 12 10 9 10 11 8 8 10 8 8 7 7 8 10 8 6 7 7 6 5 5 4 4